This is the latest recevied weather packets stored in our database for station/object KD0JCP-10. If no packets are shown the sender has not sent any weather packets the latest 10 day(s).
| Time | Temp. | Humidity | Pressure | Rain* | Wind** | Luminosity | Snow |
|---|---|---|---|---|---|---|---|
| 1778058971 | 5° C | 61% | 1018.7 hPa | 0 mm | - | - | - |
| 1778058671 | 5° C | 61% | 1018.7 hPa | 0 mm | - | - | - |
| 1778058371 | 5° C | 60% | 1018.7 hPa | 0 mm | - | - | - |
| 1778058071 | 5° C | 61% | 1018.7 hPa | 0 mm | - | - | - |
| 1778057771 | 5° C | 58% | 1018.6 hPa | 0 mm | - | - | - |
| 1778057471 | 5° C | 60% | 1018.5 hPa | 0 mm | - | - | - |
| 1778057171 | 5° C | 58% | 1018.5 hPa | 0 mm | - | - | - |
| 1778056871 | 5.56° C | 59% | 1018.7 hPa | 0 mm | - | - | - |
| 1778056571 | 5.56° C | 60% | 1018.5 hPa | 0 mm | - | - | - |
| 1778056271 | 5.56° C | 59% | 1018.4 hPa | 0 mm | - | - | - |
| 1778055971 | 5.56° C | 58% | 1018.3 hPa | 0 mm | - | - | - |
| 1778055671 | 6.11° C | 58% | 1018.3 hPa | 0 mm | - | - | - |
| 1778055371 | 6.11° C | 57% | 1018.3 hPa | 0 mm | - | - | - |
| 1778055071 | 6.11° C | 56% | 1018.2 hPa | 0 mm | - | - | - |
| 1778054771 | 6.11° C | 56% | 1018.2 hPa | 0 mm | - | - | - |
| 1778054471 | 6.11° C | 55% | 1018.1 hPa | 0 mm | - | - | - |
| 1778054171 | 6.67° C | 57% | 1018.2 hPa | 0 mm | - | - | - |
| 1778053871 | 6.67° C | 57% | 1018 hPa | 0 mm | - | - | - |
| 1778053571 | 6.67° C | 57% | 1018.1 hPa | 0 mm | - | - | - |
| 1778053271 | 6.67° C | 56% | 1018.1 hPa | 0 mm | - | - | - |
| 1778052971 | 6.67° C | 56% | 1018.1 hPa | 0 mm | - | - | - |
| 1778052671 | 7.22° C | 55% | 1018.1 hPa | 0 mm | - | - | - |
| 1778052371 | 7.22° C | 54% | 1018.2 hPa | 0 mm | - | - | - |
| 1778052071 | 7.22° C | 54% | 1018.1 hPa | 0 mm | - | - | - |
| 1778051771 | 7.22° C | 53% | 1018 hPa | 0 mm | - | - | - |
* Rain latest hour (hover to see other rain measurements)
** Current wind speed in m/s (hover to see current wind gust speed)